Weather History for KIGM - October, 2012

Change the Weather History Date:

Wednesday, October 10, 2012

  Actual Average Record
Temperature  
Mean Temperature 72 °F 65 °F  
Max Temperature 83 °F 80 °F 95 °F (1936)
Min Temperature 61 °F 51 °F 29 °F (1924)
Degree Days  
Heating Degree Days 0 3  
Month to date heating degree days 0 17  
Since 1 July heating degree days 0 23  
Cooling Degree Days 7 3  
Month to date cooling degree days 78 41  
Year to date cooling degree days 2282 2067  
Growing Degree Days 22 (Base 50)    
Moisture  
Dew Point 42 °F    
Average Humidity 45    
Maximum Humidity 72    
Minimum Humidity 18    
Precipitation  
Precipitation 0.00 in 0.02 in 0.70 in (1985)
Month to date precipitation 0.00 0.15  
Year to date precipitation 6.52 6.44  
Sea Level Pressure  
Sea Level Pressure 29.80 in    
Wind  
Wind Speed 12 mph (SSE)    
Max Wind Speed 22 mph    
Max Gust Speed 25 mph    
Visibility 10 miles    
Events      
T = Trace of Precipitation, MM = Missing Value Source: NWS Daily Summary

Daily Weather History Graph

Daily Weather History Graph

Search for Another Location

Airport or City:

Trip Planner

Search our weather history database for the weather conditions in past years. The results will help you decide how hot, cold, wet, or windy it might be!

Date:

Astronomy

Oct. 10, 2012 Rise Set
Actual Time 6:38 AM MST 6:06 PM MST
Civil Twilight 6:12 AM MST 6:31 PM MST
Nautical Twilight 5:43 AM MST 7:01 PM MST
Astronomical Twilight 5:13 AM MST 7:30 PM MST
Moon 1:29 AM MST (10/10) 3:01 PM MST (10/10)
Length of Visible Light 12h 19m
Length of Day
11h 28m
Waning Crescent, 26% of the Moon is Illuminated
Oct 10
Waning Crescent
Oct 15
New
Oct 21
First Quarter
Oct 29
Full
Nov 6
Last Quarter

Hourly Weather History & Observations

Time (MST) Temp. Dew Point Humidity Pressure Visibility Wind Dir Wind Speed Gust Speed Precip Events Conditions
12:51 AM 68.0 °F 45.0 °F 43% 29.81 in 10.0 mi SE 11.5 mph - N/A   Scattered Clouds
1:51 AM 66.9 °F 46.9 °F 49% 29.82 in 10.0 mi SE 8.1 mph - N/A   Partly Cloudy
2:51 AM 64.9 °F 46.9 °F 52% 29.81 in 10.0 mi SE 9.2 mph - N/A   Partly Cloudy
3:51 AM 64.9 °F 46.0 °F 50% 29.81 in 10.0 mi SE 8.1 mph - N/A   Clear
4:51 AM 63.0 °F 46.0 °F 54% 29.82 in 10.0 mi SE 9.2 mph - N/A   Clear
5:51 AM 64.0 °F 48.9 °F 58% 29.83 in 10.0 mi ESE 8.1 mph - N/A   Clear
6:51 AM 62.6 °F 53.6 °F 72% 30.01 in 10.0 mi ESE 11.5 mph - N/A   Clear
7:51 AM 66.9 °F 50.0 °F 54% 29.85 in 10.0 mi ESE 13.8 mph - N/A   Clear
8:51 AM 70.0 °F 50.0 °F 49% 29.86 in 10.0 mi ESE 11.5 mph - N/A   Clear
9:51 AM 77.0 °F 44.1 °F 31% 29.85 in 10.0 mi South 16.1 mph 21.9 mph N/A   Clear
10:51 AM 79.0 °F 43.0 °F 28% 29.83 in 10.0 mi SE 16.1 mph 27.6 mph N/A   Clear
11:51 AM 81.0 °F 39.0 °F 22% 29.82 in 10.0 mi South 17.3 mph 27.6 mph N/A   Partly Cloudy
12:51 PM 82.9 °F 35.1 °F 18% 29.78 in 10.0 mi SSE 23.0 mph 31.1 mph N/A   Clear
1:51 PM 81.0 °F 36.0 °F 20% 29.75 in 10.0 mi SE 24.2 mph 33.4 mph N/A   Clear
2:51 PM - - N/A% 29.93 in - North - - N/A   Unknown
3:51 PM 81.0 °F 34.0 °F 18% 29.72 in 10.0 mi SSE 17.3 mph 21.9 mph N/A   Partly Cloudy
4:51 PM 79.0 °F 37.0 °F 22% 29.73 in 10.0 mi SSE 15.0 mph - N/A   Mostly Cloudy
5:51 PM 77.0 °F 36.0 °F 23% 29.73 in 10.0 mi South 6.9 mph 17.3 mph N/A   Clear
6:51 PM 73.0 °F 37.0 °F 27% 29.75 in 10.0 mi South 9.2 mph - N/A   Partly Cloudy
7:51 PM 66.9 °F 37.0 °F 33% 29.76 in 10.0 mi SSW 8.1 mph - N/A   Clear
8:51 PM 69.1 °F 37.9 °F 32% 29.76 in 10.0 mi SSW 6.9 mph - N/A   Mostly Cloudy
9:51 PM 66.0 °F 37.0 °F 34% 29.75 in 10.0 mi SE 9.2 mph - N/A   Clear
10:51 PM 64.0 °F 37.9 °F 38% 29.75 in 10.0 mi SSW 5.8 mph - N/A   Clear
11:51 PM 64.9 °F 37.9 °F 37% 29.73 in 10.0 mi SSE 3.5 mph - N/A   Clear